Regional Weather Roundup
Issued by NWS

Home | Current Version | Previous Version | Graphics & Text | Print | Product List | Glossary On
Versions: 1 2 3 4 5 6 7 8 9 10 11 12 13 14 15 16 17 18 19 20 21 22 23 24 25 26 27 28 29 30 31 32 33 34 35 36 37 38 39 40 41 42 43 44 45 46 47 48 49 50
000
ASUS43 KMKX 040200
RWRWI

WISCONSIN REGIONAL WEATHER ROUNDUP
NATIONAL WEATHER SERVICE MILWAUKEE/SULLIVAN WI
900 PM CDT FRI JUL 03 2015

NOTE: "FAIR" INDICATES FEW OR NO CLOUDS BELOW 12,000 FEET WITH NO
SIGNIFICANT WEATHER AND/OR OBSTRUCTIONS TO VISIBILITY.

WIZ001-002-006>008-014>016-023>028-040300-
NORTHWEST WISCONSIN

CITY           SKY/WX    TMP DP  RH WIND       PRES   REMARKS
SUPERIOR ARPT  PTCLDY    73  60  63 N5        29.85S
ASHLAND        PTCLDY    68  66  93 CALM      29.86R FOG
HAYWARD        MOCLDY    71  64  78 SW7       29.89R
SIREN          PTCLDY    73  63  72 SW5       29.89S
CUMBERLAND     PTCLDY    68  59  73 SW3       29.89F
RICE LAKE      PTCLDY    71  60  68 CALM      29.91S
CHETEK         PTCLDY    71  61  70 CALM      29.90S
LADYSMITH      MOCLDY    70  61  72 SW5       29.91F
EAU CLAIRE     PTCLDY    70  58  65 SW6       29.89S
MENOMONIE      CLEAR     71  58  64 SW5       29.90S
NEW RICHMOND   CLEAR     70  60  70 S3        29.91S
OSCEOLA        MOCLDY    73  62  67 CALM      29.92F
$$

WIZ003>005-009-010-017-018-040300-
NORTH CENTRAL WISCONSIN

CITY           SKY/WX    TMP DP  RH WIND       PRES   REMARKS
MANITOWISH WTR TSTM      62  62  99 E3        29.90R
ARBOR VITAE    TSTM      69  63  79 CALM      29.91R
WOODRUFF       TSTM      69  63  79 CALM      29.91R
RHINELANDER    PTCLDY    65  59  81 W6        29.92R
EAGLE RIVER    MOCLDY    66  58  73 SW3       29.89S
LAND O LAKES   MOCLDY    66  62  87 CALM      29.90R THUNDER
PHILLIPS       CLEAR     69  60  74 CALM      29.89S
TOMAHAWK       CLEAR     67  58  74 CALM      29.91S
MEDFORD        PTCLDY    67  58  74 SW5       29.91F
MERRILL        CLEAR     68  58  72 SW5       29.90F
$$

WIZ029-030-035-036-043>047-040300-
CENTRAL WISCONSIN

CITY           SKY/WX    TMP DP  RH WIND       PRES   REMARKS
WAUSAU         CLEAR     70  56  61 W7        29.89S
MOSINEE        NOT AVBL
MARSHFIELD     CLEAR     67  56  67 W5        29.91F
STEVENS POINT  MOCLDY    69  56  64 CALM      29.91S
WAUPACA        PTCLDY    71  58  63 CALM      29.90S
WAUTOMA        NOT AVBL
WISC RAPIDS    CLEAR     67  57  70 W6        29.92S
CAMP DOUGLAS   CLEAR     64  64 100 W2        29.91S
$$

WIZ011>013-019>022-031-037>040-048>050-040300-
NORTHEAST WISCONSIN

CITY           SKY/WX    TMP DP  RH WIND       PRES   REMARKS
ANTIGO         CLEAR     63  57  79 W5        29.91S
SHAWANO        CLEAR     73  57  56 CALM      29.89S
OCONTO         CLOUDY    69  56  63 CALM      29.87S
STURGEON BAY   PTCLDY    64  52  63 S7        29.91S
GREEN BAY      CLOUDY    71  57  61 S5        29.89S
MANITOWOC      NOT AVBL
APPLETON       MOCLDY    68  54  60 VRB5      29.91S
CLINTONVILLE   MOCLDY    72  55  56 CALM      29.89S
OSHKOSH        CLEAR     68  56  65 SW3       29.90S
$$

WIZ032>034-041-042-053>061-040300-
SOUTHWEST WISCONSIN

CITY           SKY/WX    TMP DP  RH WIND       PRES   REMARKS
LA CROSSE      CLEAR     70  59  68 SW3       29.90F
SPARTA         CLEAR     68  57  68 CALM      29.92S
VIROQUA        CLEAR     69  58  70 CALM      29.93F
BOSCOBEL       CLEAR     65  61  87 CALM      29.92S
PRAIRIE DU CHI CLEAR     68  60  74 CALM      29.92S
PLATTEVILLE    CLEAR     69  54  59 W3        29.94S
$$

WIZ056-057-062-063-064-067-068-040300-
SOUTH CENTRAL WISCONSIN

CITY           SKY/WX    TMP DP  RH WIND       PRES   REMARKS
REEDSBURG      CLEAR     68  59  72 SW3       29.92S
BARABOO/DELLS  CLEAR     67  56  67 SW3       29.92S
LONE ROCK      NOT AVBL
MINERAL POINT  CLEAR     68  55  64 CALM      29.94S
MADISON        PTCLDY    65  55  70 CALM      29.92S
MIDDLETON      CLEAR     67  57  71 CALM      29.93S
WATERTOWN      CLEAR     65  56  70 CALM      29.91S
MONROE         CLEAR     70  50  49 W5        29.93S
JANESVILLE     CLEAR     68  57  68 CALM      29.91F
$$

WIZ051-052-058>065-066-070>072-040300-
SOUTHEAST WISCONSIN

CITY           SKY/WX    TMP DP  RH WIND       PRES   REMARKS
MILWAUKEE      MOCLDY    63  53  70 SE3       29.92S
WAUKESHA       CLEAR     66  54  63 CALM      29.93S
MILWAUKEE/TIMM CLEAR     68  46  45 SE5       29.92S
RACINE         CLEAR     63  52  67 CALM      29.94R
BURLINGTON     CLEAR     62  56  82 CALM      29.92S
KENOSHA        CLEAR     64  53  67 SE3       29.92S
FOND DU LAC    CLEAR     66  55  67 SW5       29.91S
SHEBOYGAN      CLEAR     62  50  64 S5        29.92R
WEST BEND      CLEAR     64  52  63 CALM      29.92S
JUNEAU         CLEAR     66  56  68 CALM      29.93S
$$

LSZ147-162-040300-
LAKE SUPERIOR

STATION/POSITION TIME  TEMP    WIND        PRES    WAVE
                       AIR SEA DIR/SP/G            HT/PER
                 (UTC) (F)     (DEG/KT/KT) (MB)    (FT/S)
W MID LAKE BUOY  0050   53 39  340/  8/ 12 1010.5R   1/ 4
DEVILS ISLAND    0100   71     260/  6/  8 1010.4R
SAXON HARBOR     0140   68        CALM     1010.5R
$$

LMZ867-665-643>646-040300-
LAKE MICHIGAN

STATION/POSITION TIME  TEMP    WIND        PRES    WAVE
                       AIR SEA DIR/SP/G            HT/PER
                 (UTC) (F)     (DEG/KT/KT) (MB)    (FT/S)
CHAMBERS ISLAND  0100   71     190/  6/ 10 1011.5S
S GREEN BAY BUOY 0100   71 69  210/  8/ 12 1013.2F
N MID LAKE BUOY  0050   51 43  210/ 12/ 14 1011.8F   2/ 4
NORTHPORT PIER   0100   66     160/  5/  8 1011.5S
SISTER BAY       0114   66     160/  8/  9   N/A
ALGOMA LAKESHORE 0010          220/ 12/ 13   N/A
KEWAUNEE LAKESHO 0100   63     180/  9/ 10 1011.9S
SHEBOYGAN LAKESH 0100   65     190/  8/  9 1013.2S
PORT WASHINGTON  0100   64     180/  4/  5 1013.5
ATWATER BUOY     0100   62 62  170/  6/  6 1014.4F
MILWAUKEE LAKESH 0100   63     150/  8/  9   N/A
KENOSHA   LAKESH 0100   63     180/  5/  6 1012.9F
$$

TC  - TEMPERATURE IN CELSIUS
VSB - VISIBILITY IN STATUTE MILES
WCI - WIND CHILL INDEX
HX  - HEAT INDEX



USA.gov is the U.S. government's official web portal to all federal, state and local government web resources and services.